Regional Weather Roundup
Issued by NWS

Home | Current Version | Previous Version | Text Only | Print | Product List | Glossary Off
Versions: 1 2 3 4 5 6 7 8 9 10 11 12 13 14 15 16 17 18 19 20 21 22 23 24 25 26 27 28 29 30 31 32 33 34 35 36 37 38 39 40 41 42 43 44 45 46 47 48 49 50

000
ASUS45 KCYS 220410
RWRWY

WYOMING REGIONAL WEATHER ROUNDUP
NATIONAL WEATHER SERVICE CHEYENNE WY
900 PM MST TUE FEB 21 2017

NOTE:  "FAIR" INDICATES FEW OR NO CLOUDS BELOW 12,000 FEET
WITH NO SIGNIFICANT WEATHER AND/OR OBSTRUCTIONS TO VISIBILITY.

WYZ001-220500-
YELLOWSTONE NATIONAL PARK

CITY           SKY/WX    TMP DP  RH WIND       PRES   REMARKS
LK YELLOWSTONE   N/A     25  22  88 MISG      29.85S
W YELLOWSTONE  NOT AVBL

$$
WYZ002>013-054>058-071-098>099-220500-
NORTHERN WYOMING

CITY           SKY/WX    TMP DP  RH WIND       PRES   REMARKS
JACKSON        CLOUDY    30  27  86 S16       29.90F WCI  19
CODY           FAIR      40  24  53 SW9G16    29.81R WCI  34
GREYBULL       FAIR      38  30  73 SW6       29.76R WCI  33
WORLAND        FAIR      39  34  82 S12       29.81R WCI  32
SHERIDAN       FAIR      48  25  40 SW29G44   29.67F
BUFFALO        FAIR      48  18  30 SE5       29.71F
GILLETTE       CLOUDY    49  33  54 S9        29.70F
HULETT         MOCLDY    52  30  43 SW8       29.71F
NEWCASTLE      FAIR      45  32  61 S6        29.77S

$$
WYZ014>020-022>026-101>103-220500-
CENTRAL WYOMING

CITY           SKY/WX    TMP DP  RH WIND       PRES   REMARKS
BIG PINEY      CLOUDY    26  25  96 CALM      29.96F
PINEDALE       CLOUDY    28  27  93 N3        29.95R
DUBOIS         MOCLDY    28  19  69 W26       29.80F HAZE    WCI  13
LANDER         FAIR      35  30  82 VRB7      29.86F WCI  29
RIVERTON       MOCLDY    34  30  85 SW7       29.86S WCI  28
CASPER         FAIR      37  33  85 W22       29.85R WCI  26
DOUGLAS        MOCLDY    46  35  65 NW21G33   29.83R

$$
WYZ021-027>030-104>119-220500-
SOUTHERN WYOMING

CITY           SKY/WX    TMP DP  RH WIND       PRES   REMARKS
EVANSTON       LGT SNOW  29  26  89 N5        30.02F VSB 1   WCI  24
KEMMERER       LGT SNOW  28  27  93 W21       30.01R WCI  15
FORT BRIDGER   SNOW      30  30 100 NW10      30.06R VSB 1/2 WCI  21
ROCK SPRINGS   LGT SNOW  30  27  88 NW12      30.01R VSB 3/4 WCI  20
DIXON            N/A     44  32  63 S18G29    29.95R
RAWLINS        LGT SNOW  34  31  88 W22G32    29.90R FOG     WCI  22
SARATOGA       FAIR      45  28  53 SW26G36   29.88F
LARAMIE        FAIR      38  23  55 SW20      29.89F WCI  28
CHEYENNE       FAIR      41  16  36 SW7       29.90F
TORRINGTON     FAIR      52  21  29 W10       29.79F
PINE BLUFFS    FAIR      48  18  29 W16G23    29.87F

$$



USA.gov is the U.S. government's official web portal to all federal, state and local government web resources and services.